Location: Nag� el Ma?a??a
(24.0667°N, 32.8833°E)
Time: 17:00:56
(UTC+00:00)

Cosmos 1356 Rocket - Pass Details

Date: 25 September 2021
Orbit: 542 x 598 km, 81.2° (Epoch: 16 October)

Event Time Altitude Azimuth Distance (km) Brightness Sun altitude
Rises 03:05:55 0° 350° (N) 2,797 6.8 -8.2°
Reaches altitude 10° 03:08:08 10° 348° (NNW) 1,887 6.0 -7.7°
Maximum altitude 03:12:17 71° 265° (W) 603 3.3 -6.7°
Drops below altitude 10° 03:16:20 10° 181° (S) 1,844 6.0 -5.8°
Sets 03:18:29 0° 179° (S) 2,728 6.9 -5.3°
